sat.trackr.live / text

‹ back to catalog

STARLINK-5058

NORAD 55456 · 2023-015H

PAYLOAD ACTIVE UNKNOWN

§ Identity

Operator
Country
US
Launch date
2023-02-02
Launch site
AFETR
Launch vehicle
Mass (kg)
RCS (m²)

Purposes: comms

External: N2YO · Heavens-Above · Gunter

§ Orbital elements

Epoch: 2026-09-20T09:57:37.694304Z

Period
94.27 min
Inclination
43.0026°
Eccentricity
0.0001325
Mean motion
15.27573981 rev/d
Perigee alt
482.2 km
Apogee alt
484.0 km
Semi-major
6,861.2 km
B*
-4.6468e-6
RAAN
308.9457°
Arg perigee
267.8028°
Mean anomaly
92.2672°
Rev number
20,050

§ Raw data

STARLINK-50581 55456U 23015H   26263.41501961 -.00000390  00000+0 -46468-5 0  99982 55456  43.0026 308.9457 0001325 267.8028  92.2672 15.27573981200505

JSON: /api/v1/satellites/55456 · /tle

For live sub-satellite position, see the globe view (requires WebGL).

§ Visibility from observer

Set your observer location to see the next 7 days of passes ≥ 10°. The values pass through the URL so the page stays shareable.

No JS? Fill the form by hand. The geolocation button needs JavaScript.